Data supplied by UK-AIR on 1/4/2011
All Data GMT hour ending 
Status: R =Ratified P=Provisional,P*=As supplied
,,Glasgow City Chambers,,,,,,,,,,,,,,,,,,,,,,,
Date,time,"Nitric oxide",status,unit,"Nitrogen dioxide",status,unit,"Nitrogen oxides as nitrogen dioxide",status,unit
 
01-01-2010,01:00,86,R,ugm-3,92,R,ugm-3,223,R,ugm-3
01-01-2010,02:00,59,R,ugm-3,92,R,ugm-3,181,R,ugm-3
01-01-2010,03:00,51,R,ugm-3,80,R,ugm-3,159,R,ugm-3
01-01-2010,04:00,44,R,ugm-3,74,R,ugm-3,141,R,ugm-3
01-01-2010,05:00,38,R,ugm-3,71,R,ugm-3,128,R,ugm-3
01-01-2010,06:00,39,R,ugm-3,71,R,ugm-3,130,R,ugm-3
01-01-2010,07:00,41,R,ugm-3,71,R,ugm-3,134,R,ugm-3
01-01-2010,08:00,51,R,ugm-3,73,R,ugm-3,151,R,ugm-3
01-01-2010,09:00,63,R,ugm-3,71,R,ugm-3,166,R,ugm-3
01-01-2010,10:00,56,R,ugm-3,65,R,ugm-3,151,R,ugm-3
01-01-2010,11:00,80,R,ugm-3,71,R,ugm-3,193,R,ugm-3
01-01-2010,12:00,60,R,ugm-3,80,R,ugm-3,172,R,ugm-3
01-01-2010,13:00,63,R,ugm-3,78,R,ugm-3,174,R,ugm-3
01-01-2010,14:00,59,R,ugm-3,78,R,ugm-3,168,R,ugm-3
01-01-2010,15:00,48,R,ugm-3,78,R,ugm-3,151,R,ugm-3
01-01-2010,16:00,31,R,ugm-3,73,R,ugm-3,120,R,ugm-3
01-01-2010,17:00,10,R,ugm-3,59,R,ugm-3,74,R,ugm-3
01-01-2010,18:00,13,R,ugm-3,61,R,ugm-3,80,R,ugm-3
01-01-2010,19:00,65,R,ugm-3,90,R,ugm-3,189,R,ugm-3
01-01-2010,20:00,95,R,ugm-3,103,R,ugm-3,248,R,ugm-3
01-01-2010,21:00,75,R,ugm-3,101,R,ugm-3,216,R,ugm-3
01-01-2010,22:00,71,R,ugm-3,96,R,ugm-3,204,R,ugm-3
01-01-2010,23:00,93,R,ugm-3,96,R,ugm-3,237,R,ugm-3
01-01-2010,24:00,9,R,ugm-3,53,R,ugm-3,67,R,ugm-3
02-01-2010,01:00,14,R,ugm-3,59,R,ugm-3,80,R,ugm-3
02-01-2010,02:00,4,R,ugm-3,48,R,ugm-3,53,R,ugm-3
02-01-2010,03:00,6,R,ugm-3,46,R,ugm-3,55,R,ugm-3
02-01-2010,04:00,15,R,ugm-3,59,R,ugm-3,82,R,ugm-3
02-01-2010,05:00,9,R,ugm-3,59,R,ugm-3,73,R,ugm-3
02-01-2010,06:00,8,R,ugm-3,61,R,ugm-3,73,R,ugm-3
02-01-2010,07:00,13,R,ugm-3,59,R,ugm-3,78,R,ugm-3
02-01-2010,08:00,29,R,ugm-3,73,R,ugm-3,117,R,ugm-3
02-01-2010,09:00,63,R,ugm-3,74,R,ugm-3,170,R,ugm-3
02-01-2010,10:00,58,R,ugm-3,65,R,ugm-3,153,R,ugm-3
02-01-2010,11:00,14,R,ugm-3,40,R,ugm-3,61,R,ugm-3
02-01-2010,12:00,21,R,ugm-3,40,R,ugm-3,73,R,ugm-3
02-01-2010,13:00,21,R,ugm-3,38,R,ugm-3,71,R,ugm-3
02-01-2010,14:00,23,R,ugm-3,34,R,ugm-3,69,R,ugm-3
02-01-2010,15:00,25,R,ugm-3,34,R,ugm-3,73,R,ugm-3
02-01-2010,16:00,28,R,ugm-3,42,R,ugm-3,84,R,ugm-3
02-01-2010,17:00,39,R,ugm-3,50,R,ugm-3,109,R,ugm-3
02-01-2010,18:00,31,R,ugm-3,44,R,ugm-3,92,R,ugm-3
02-01-2010,19:00,23,R,ugm-3,42,R,ugm-3,76,R,ugm-3
02-01-2010,20:00,33,R,ugm-3,48,R,ugm-3,97,R,ugm-3
02-01-2010,21:00,25,R,ugm-3,48,R,ugm-3,86,R,ugm-3
02-01-2010,22:00,23,R,ugm-3,42,R,ugm-3,76,R,ugm-3
02-01-2010,23:00,18,R,ugm-3,44,R,ugm-3,71,R,ugm-3
02-01-2010,24:00,19,R,ugm-3,42,R,ugm-3,71,R,ugm-3
03-01-2010,01:00,19,R,ugm-3,44,R,ugm-3,73,R,ugm-3
03-01-2010,02:00,14,R,ugm-3,50,R,ugm-3,71,R,ugm-3
03-01-2010,03:00,25,R,ugm-3,55,R,ugm-3,94,R,ugm-3
03-01-2010,04:00,45,R,ugm-3,65,R,ugm-3,134,R,ugm-3
03-01-2010,05:00,23,R,ugm-3,55,R,ugm-3,90,R,ugm-3
03-01-2010,06:00,5,R,ugm-3,46,R,ugm-3,53,R,ugm-3
03-01-2010,07:00,29,R,ugm-3,57,R,ugm-3,101,R,ugm-3
03-01-2010,08:00,71,R,ugm-3,65,R,ugm-3,174,R,ugm-3
03-01-2010,09:00,83,R,ugm-3,69,R,ugm-3,195,R,ugm-3
03-01-2010,10:00,86,R,ugm-3,67,R,ugm-3,199,R,ugm-3
03-01-2010,11:00,130,R,ugm-3,78,R,ugm-3,277,R,ugm-3
03-01-2010,12:00,110,R,ugm-3,76,R,ugm-3,244,R,ugm-3
03-01-2010,13:00,68,R,ugm-3,67,R,ugm-3,170,R,ugm-3
03-01-2010,14:00,35,R,ugm-3,61,R,ugm-3,115,R,ugm-3
03-01-2010,15:00,60,R,ugm-3,69,R,ugm-3,160,R,ugm-3
03-01-2010,16:00,129,R,ugm-3,82,R,ugm-3,279,R,ugm-3
03-01-2010,17:00,114,R,ugm-3,82,R,ugm-3,256,R,ugm-3
03-01-2010,18:00,113,R,ugm-3,86,R,ugm-3,258,R,ugm-3
03-01-2010,19:00,110,R,ugm-3,86,R,ugm-3,254,R,ugm-3
03-01-2010,20:00,108,R,ugm-3,84,R,ugm-3,248,R,ugm-3
03-01-2010,21:00,108,R,ugm-3,82,R,ugm-3,246,R,ugm-3
03-01-2010,22:00,98,R,ugm-3,80,R,ugm-3,229,R,ugm-3
03-01-2010,23:00,99,R,ugm-3,76,R,ugm-3,227,R,ugm-3
03-01-2010,24:00,84,R,ugm-3,76,R,ugm-3,204,R,ugm-3
04-01-2010,01:00,68,R,ugm-3,63,R,ugm-3,166,R,ugm-3
04-01-2010,02:00,38,R,ugm-3,63,R,ugm-3,120,R,ugm-3
04-01-2010,03:00,29,R,ugm-3,57,R,ugm-3,101,R,ugm-3
04-01-2010,04:00,21,R,ugm-3,50,R,ugm-3,82,R,ugm-3
04-01-2010,05:00,25,R,ugm-3,52,R,ugm-3,90,R,ugm-3
04-01-2010,06:00,26,R,ugm-3,50,R,ugm-3,90,R,ugm-3
04-01-2010,07:00,29,R,ugm-3,48,R,ugm-3,92,R,ugm-3
04-01-2010,08:00,46,R,ugm-3,53,R,ugm-3,124,R,ugm-3
04-01-2010,09:00,74,R,ugm-3,63,R,ugm-3,176,R,ugm-3
04-01-2010,10:00,86,R,ugm-3,63,R,ugm-3,195,R,ugm-3
04-01-2010,11:00,113,R,ugm-3,69,R,ugm-3,241,R,ugm-3
04-01-2010,12:00,121,R,ugm-3,71,R,ugm-3,256,R,ugm-3
04-01-2010,13:00,136,R,ugm-3,73,R,ugm-3,281,R,ugm-3
04-01-2010,14:00,146,R,ugm-3,82,R,ugm-3,306,R,ugm-3
04-01-2010,15:00,181,R,ugm-3,94,R,ugm-3,371,R,ugm-3
04-01-2010,16:00,233,R,ugm-3,107,R,ugm-3,462,R,ugm-3
04-01-2010,17:00,258,R,ugm-3,115,R,ugm-3,508,R,ugm-3
04-01-2010,18:00,271,R,ugm-3,120,R,ugm-3,535,R,ugm-3
04-01-2010,19:00,303,R,ugm-3,130,R,ugm-3,592,R,ugm-3
04-01-2010,20:00,220,R,ugm-3,115,R,ugm-3,451,R,ugm-3
04-01-2010,21:00,159,R,ugm-3,111,R,ugm-3,353,R,ugm-3
04-01-2010,22:00,56,R,ugm-3,88,R,ugm-3,174,R,ugm-3
04-01-2010,23:00,78,R,ugm-3,94,R,ugm-3,212,R,ugm-3
04-01-2010,24:00,96,R,ugm-3,94,R,ugm-3,241,R,ugm-3
05-01-2010,01:00,59,R,ugm-3,84,R,ugm-3,174,R,ugm-3
05-01-2010,02:00,3,R,ugm-3,19,R,ugm-3,23,R,ugm-3
05-01-2010,03:00,1,R,ugm-3,17,R,ugm-3,19,R,ugm-3
05-01-2010,04:00,1,R,ugm-3,15,R,ugm-3,17,R,ugm-3
05-01-2010,05:00,3,R,ugm-3,32,R,ugm-3,36,R,ugm-3
05-01-2010,06:00,9,R,ugm-3,55,R,ugm-3,69,R,ugm-3
05-01-2010,07:00,29,R,ugm-3,71,R,ugm-3,115,R,ugm-3
05-01-2010,08:00,116,R,ugm-3,99,R,ugm-3,277,R,ugm-3
05-01-2010,09:00,198,R,ugm-3,124,R,ugm-3,426,R,ugm-3
05-01-2010,10:00,308,R,ugm-3,147,R,ugm-3,617,R,ugm-3
05-01-2010,11:00,294,R,ugm-3,143,R,ugm-3,592,R,ugm-3
05-01-2010,12:00,195,R,ugm-3,120,R,ugm-3,418,R,ugm-3
05-01-2010,13:00,195,R,ugm-3,128,R,ugm-3,426,R,ugm-3
05-01-2010,14:00,196,R,ugm-3,124,R,ugm-3,424,R,ugm-3
05-01-2010,15:00,181,R,ugm-3,122,R,ugm-3,399,R,ugm-3
05-01-2010,16:00,208,R,ugm-3,126,R,ugm-3,443,R,ugm-3
05-01-2010,17:00,264,R,ugm-3,136,R,ugm-3,539,R,ugm-3
05-01-2010,18:00,228,R,ugm-3,132,R,ugm-3,479,R,ugm-3
05-01-2010,19:00,169,R,ugm-3,103,R,ugm-3,361,R,ugm-3
05-01-2010,20:00,20,R,ugm-3,50,R,ugm-3,80,R,ugm-3
05-01-2010,21:00,13,R,ugm-3,27,R,ugm-3,46,R,ugm-3
05-01-2010,22:00,9,R,ugm-3,23,R,ugm-3,36,R,ugm-3
05-01-2010,23:00,8,R,ugm-3,23,R,ugm-3,34,R,ugm-3
05-01-2010,24:00,8,R,ugm-3,25,R,ugm-3,36,R,ugm-3
06-01-2010,01:00,6,R,ugm-3,21,R,ugm-3,31,R,ugm-3
06-01-2010,02:00,1,R,ugm-3,19,R,ugm-3,21,R,ugm-3
06-01-2010,03:00,1,R,ugm-3,13,R,ugm-3,15,R,ugm-3
06-01-2010,04:00,3,R,ugm-3,29,R,ugm-3,32,R,ugm-3
06-01-2010,05:00,3,R,ugm-3,17,R,ugm-3,21,R,ugm-3
06-01-2010,06:00,5,R,ugm-3,27,R,ugm-3,34,R,ugm-3
06-01-2010,07:00,19,R,ugm-3,42,R,ugm-3,71,R,ugm-3
06-01-2010,08:00,43,R,ugm-3,61,R,ugm-3,126,R,ugm-3
06-01-2010,09:00,44,R,ugm-3,76,R,ugm-3,143,R,ugm-3
06-01-2010,10:00,59,R,ugm-3,86,R,ugm-3,176,R,ugm-3
06-01-2010,11:00,80,R,ugm-3,94,R,ugm-3,216,R,ugm-3
06-01-2010,12:00,75,R,ugm-3,92,R,ugm-3,206,R,ugm-3
06-01-2010,13:00,46,R,ugm-3,80,R,ugm-3,151,R,ugm-3
06-01-2010,14:00,78,R,ugm-3,86,R,ugm-3,204,R,ugm-3
06-01-2010,15:00,58,R,ugm-3,84,R,ugm-3,172,R,ugm-3
06-01-2010,16:00,55,R,ugm-3,84,R,ugm-3,168,R,ugm-3
06-01-2010,17:00,114,R,ugm-3,105,R,ugm-3,279,R,ugm-3
06-01-2010,18:00,141,R,ugm-3,117,R,ugm-3,332,R,ugm-3
06-01-2010,19:00,139,R,ugm-3,111,R,ugm-3,323,R,ugm-3
06-01-2010,20:00,126,R,ugm-3,111,R,ugm-3,304,R,ugm-3
06-01-2010,21:00,108,R,ugm-3,111,R,ugm-3,275,R,ugm-3
06-01-2010,22:00,64,R,ugm-3,94,R,ugm-3,191,R,ugm-3
06-01-2010,23:00,74,R,ugm-3,94,R,ugm-3,206,R,ugm-3
06-01-2010,24:00,148,R,ugm-3,107,R,ugm-3,332,R,ugm-3
07-01-2010,01:00,180,R,ugm-3,115,R,ugm-3,390,R,ugm-3
07-01-2010,02:00,119,R,ugm-3,105,R,ugm-3,287,R,ugm-3
07-01-2010,03:00,95,R,ugm-3,96,R,ugm-3,241,R,ugm-3
07-01-2010,04:00,75,R,ugm-3,90,R,ugm-3,204,R,ugm-3
07-01-2010,05:00,51,R,ugm-3,84,R,ugm-3,162,R,ugm-3
07-01-2010,06:00,43,R,ugm-3,78,R,ugm-3,143,R,ugm-3
07-01-2010,07:00,53,R,ugm-3,78,R,ugm-3,159,R,ugm-3
07-01-2010,08:00,110,R,ugm-3,90,R,ugm-3,258,R,ugm-3
07-01-2010,09:00,120,R,ugm-3,99,R,ugm-3,283,R,ugm-3
07-01-2010,10:00,,,,,,,,,
07-01-2010,11:00,,,,,,,,,
07-01-2010,12:00,,,,,,,,,
07-01-2010,13:00,151,R,ugm-3,109,R,ugm-3,340,R,ugm-3
07-01-2010,14:00,146,R,ugm-3,105,R,ugm-3,329,R,ugm-3
07-01-2010,15:00,143,R,ugm-3,113,R,ugm-3,330,R,ugm-3
07-01-2010,16:00,136,R,ugm-3,107,R,ugm-3,315,R,ugm-3
07-01-2010,17:00,160,R,ugm-3,113,R,ugm-3,357,R,ugm-3
07-01-2010,18:00,204,R,ugm-3,126,R,ugm-3,437,R,ugm-3
07-01-2010,19:00,160,R,ugm-3,115,R,ugm-3,359,R,ugm-3
07-01-2010,20:00,156,R,ugm-3,115,R,ugm-3,353,R,ugm-3
07-01-2010,21:00,124,R,ugm-3,103,R,ugm-3,292,R,ugm-3
07-01-2010,22:00,119,R,ugm-3,101,R,ugm-3,283,R,ugm-3
07-01-2010,23:00,123,R,ugm-3,103,R,ugm-3,290,R,ugm-3
07-01-2010,24:00,119,R,ugm-3,97,R,ugm-3,279,R,ugm-3
08-01-2010,01:00,124,R,ugm-3,101,R,ugm-3,290,R,ugm-3
08-01-2010,02:00,109,R,ugm-3,99,R,ugm-3,265,R,ugm-3
08-01-2010,03:00,81,R,ugm-3,94,R,ugm-3,218,R,ugm-3
08-01-2010,04:00,80,R,ugm-3,90,R,ugm-3,212,R,ugm-3
08-01-2010,05:00,73,R,ugm-3,86,R,ugm-3,197,R,ugm-3
08-01-2010,06:00,74,R,ugm-3,86,R,ugm-3,199,R,ugm-3
08-01-2010,07:00,65,R,ugm-3,84,R,ugm-3,183,R,ugm-3
08-01-2010,08:00,121,R,ugm-3,97,R,ugm-3,283,R,ugm-3
08-01-2010,09:00,120,R,ugm-3,99,R,ugm-3,283,R,ugm-3
08-01-2010,10:00,111,R,ugm-3,92,R,ugm-3,262,R,ugm-3
08-01-2010,11:00,91,R,ugm-3,86,R,ugm-3,225,R,ugm-3
08-01-2010,12:00,119,R,ugm-3,92,R,ugm-3,273,R,ugm-3
08-01-2010,13:00,154,R,ugm-3,103,R,ugm-3,338,R,ugm-3
08-01-2010,14:00,160,R,ugm-3,109,R,ugm-3,353,R,ugm-3
08-01-2010,15:00,179,R,ugm-3,113,R,ugm-3,386,R,ugm-3
08-01-2010,16:00,183,R,ugm-3,111,R,ugm-3,390,R,ugm-3
08-01-2010,17:00,200,R,ugm-3,111,R,ugm-3,416,R,ugm-3
08-01-2010,18:00,195,R,ugm-3,111,R,ugm-3,409,R,ugm-3
08-01-2010,19:00,156,R,ugm-3,107,R,ugm-3,346,R,ugm-3
08-01-2010,20:00,271,R,ugm-3,138,R,ugm-3,552,R,ugm-3
08-01-2010,21:00,186,R,ugm-3,118,R,ugm-3,403,R,ugm-3
08-01-2010,22:00,161,R,ugm-3,107,R,ugm-3,353,R,ugm-3
08-01-2010,23:00,120,R,ugm-3,97,R,ugm-3,281,R,ugm-3
08-01-2010,24:00,131,R,ugm-3,101,R,ugm-3,302,R,ugm-3
09-01-2010,01:00,116,R,ugm-3,92,R,ugm-3,269,R,ugm-3
09-01-2010,02:00,106,R,ugm-3,94,R,ugm-3,256,R,ugm-3
09-01-2010,03:00,106,R,ugm-3,88,R,ugm-3,250,R,ugm-3
09-01-2010,04:00,99,R,ugm-3,84,R,ugm-3,235,R,ugm-3
09-01-2010,05:00,96,R,ugm-3,82,R,ugm-3,229,R,ugm-3
09-01-2010,06:00,75,R,ugm-3,76,R,ugm-3,191,R,ugm-3
09-01-2010,07:00,66,R,ugm-3,74,R,ugm-3,176,R,ugm-3
09-01-2010,08:00,103,R,ugm-3,80,R,ugm-3,237,R,ugm-3
09-01-2010,09:00,124,R,ugm-3,88,R,ugm-3,277,R,ugm-3
09-01-2010,10:00,159,R,ugm-3,94,R,ugm-3,336,R,ugm-3
09-01-2010,11:00,168,R,ugm-3,96,R,ugm-3,351,R,ugm-3
09-01-2010,12:00,174,R,ugm-3,101,R,ugm-3,367,R,ugm-3
09-01-2010,13:00,193,R,ugm-3,107,R,ugm-3,401,R,ugm-3
09-01-2010,14:00,114,R,ugm-3,94,R,ugm-3,267,R,ugm-3
09-01-2010,15:00,95,R,ugm-3,84,R,ugm-3,229,R,ugm-3
09-01-2010,16:00,105,R,ugm-3,94,R,ugm-3,254,R,ugm-3
09-01-2010,17:00,119,R,ugm-3,97,R,ugm-3,279,R,ugm-3
09-01-2010,18:00,85,R,ugm-3,92,R,ugm-3,222,R,ugm-3
09-01-2010,19:00,119,R,ugm-3,94,R,ugm-3,275,R,ugm-3
09-01-2010,20:00,116,R,ugm-3,94,R,ugm-3,271,R,ugm-3
09-01-2010,21:00,196,R,ugm-3,115,R,ugm-3,414,R,ugm-3
09-01-2010,22:00,194,R,ugm-3,118,R,ugm-3,414,R,ugm-3
09-01-2010,23:00,189,R,ugm-3,115,R,ugm-3,403,R,ugm-3
09-01-2010,24:00,209,R,ugm-3,120,R,ugm-3,439,R,ugm-3
10-01-2010,01:00,226,R,ugm-3,126,R,ugm-3,472,R,ugm-3
10-01-2010,02:00,81,R,ugm-3,86,R,ugm-3,210,R,ugm-3
10-01-2010,03:00,15,R,ugm-3,52,R,ugm-3,74,R,ugm-3
10-01-2010,04:00,8,R,ugm-3,40,R,ugm-3,52,R,ugm-3
10-01-2010,05:00,5,R,ugm-3,27,R,ugm-3,34,R,ugm-3
10-01-2010,06:00,3,R,ugm-3,25,R,ugm-3,29,R,ugm-3
10-01-2010,07:00,1,R,ugm-3,23,R,ugm-3,25,R,ugm-3
10-01-2010,08:00,4,R,ugm-3,27,R,ugm-3,32,R,ugm-3
10-01-2010,09:00,8,R,ugm-3,27,R,ugm-3,38,R,ugm-3
10-01-2010,10:00,8,R,ugm-3,27,R,ugm-3,38,R,ugm-3
10-01-2010,11:00,13,R,ugm-3,32,R,ugm-3,52,R,ugm-3
10-01-2010,12:00,16,R,ugm-3,36,R,ugm-3,61,R,ugm-3
10-01-2010,13:00,15,R,ugm-3,38,R,ugm-3,61,R,ugm-3
10-01-2010,14:00,18,R,ugm-3,40,R,ugm-3,67,R,ugm-3
10-01-2010,15:00,16,R,ugm-3,44,R,ugm-3,69,R,ugm-3
10-01-2010,16:00,16,R,ugm-3,44,R,ugm-3,69,R,ugm-3
10-01-2010,17:00,16,R,ugm-3,46,R,ugm-3,71,R,ugm-3
10-01-2010,18:00,13,R,ugm-3,40,R,ugm-3,59,R,ugm-3
10-01-2010,19:00,11,R,ugm-3,34,R,ugm-3,52,R,ugm-3
10-01-2010,20:00,11,R,ugm-3,36,R,ugm-3,53,R,ugm-3
10-01-2010,21:00,11,R,ugm-3,38,R,ugm-3,55,R,ugm-3
10-01-2010,22:00,9,R,ugm-3,34,R,ugm-3,48,R,ugm-3
10-01-2010,23:00,6,R,ugm-3,31,R,ugm-3,40,R,ugm-3
10-01-2010,24:00,5,R,ugm-3,23,R,ugm-3,31,R,ugm-3
11-01-2010,01:00,4,R,ugm-3,19,R,ugm-3,25,R,ugm-3
11-01-2010,02:00,1,R,ugm-3,17,R,ugm-3,19,R,ugm-3
11-01-2010,03:00,1,R,ugm-3,15,R,ugm-3,17,R,ugm-3
11-01-2010,04:00,0,R,ugm-3,13,R,ugm-3,13,R,ugm-3
11-01-2010,05:00,1,R,ugm-3,21,R,ugm-3,23,R,ugm-3
11-01-2010,06:00,8,R,ugm-3,31,R,ugm-3,42,R,ugm-3
11-01-2010,07:00,14,R,ugm-3,34,R,ugm-3,55,R,ugm-3
11-01-2010,08:00,40,R,ugm-3,69,R,ugm-3,130,R,ugm-3
11-01-2010,09:00,39,R,ugm-3,82,R,ugm-3,141,R,ugm-3
11-01-2010,10:00,48,R,ugm-3,82,R,ugm-3,155,R,ugm-3
11-01-2010,11:00,31,R,ugm-3,69,R,ugm-3,117,R,ugm-3
11-01-2010,12:00,29,R,ugm-3,69,R,ugm-3,113,R,ugm-3
11-01-2010,13:00,38,R,ugm-3,73,R,ugm-3,130,R,ugm-3
11-01-2010,14:00,34,R,ugm-3,69,R,ugm-3,120,R,ugm-3
11-01-2010,15:00,26,R,ugm-3,73,R,ugm-3,113,R,ugm-3
11-01-2010,16:00,34,R,ugm-3,76,R,ugm-3,128,R,ugm-3
11-01-2010,17:00,51,R,ugm-3,90,R,ugm-3,168,R,ugm-3
11-01-2010,18:00,49,R,ugm-3,86,R,ugm-3,160,R,ugm-3
11-01-2010,19:00,25,R,ugm-3,67,R,ugm-3,105,R,ugm-3
11-01-2010,20:00,19,R,ugm-3,55,R,ugm-3,84,R,ugm-3
11-01-2010,21:00,16,R,ugm-3,50,R,ugm-3,74,R,ugm-3
11-01-2010,22:00,8,R,ugm-3,42,R,ugm-3,53,R,ugm-3
11-01-2010,23:00,9,R,ugm-3,42,R,ugm-3,55,R,ugm-3
11-01-2010,24:00,4,R,ugm-3,32,R,ugm-3,38,R,ugm-3
12-01-2010,01:00,10,R,ugm-3,36,R,ugm-3,52,R,ugm-3
12-01-2010,02:00,3,R,ugm-3,21,R,ugm-3,25,R,ugm-3
12-01-2010,03:00,3,R,ugm-3,19,R,ugm-3,23,R,ugm-3
12-01-2010,04:00,1,R,ugm-3,21,R,ugm-3,23,R,ugm-3
12-01-2010,05:00,5,R,ugm-3,21,R,ugm-3,29,R,ugm-3
12-01-2010,06:00,10,R,ugm-3,23,R,ugm-3,38,R,ugm-3
12-01-2010,07:00,16,R,ugm-3,36,R,ugm-3,61,R,ugm-3
12-01-2010,08:00,50,R,ugm-3,69,R,ugm-3,145,R,ugm-3
12-01-2010,09:00,48,R,ugm-3,73,R,ugm-3,145,R,ugm-3
12-01-2010,10:00,61,R,ugm-3,74,R,ugm-3,168,R,ugm-3
12-01-2010,11:00,35,R,ugm-3,59,R,ugm-3,113,R,ugm-3
12-01-2010,12:00,26,R,ugm-3,52,R,ugm-3,92,R,ugm-3
12-01-2010,13:00,24,R,ugm-3,50,R,ugm-3,86,R,ugm-3
12-01-2010,14:00,29,R,ugm-3,57,R,ugm-3,101,R,ugm-3
12-01-2010,15:00,38,R,ugm-3,63,R,ugm-3,120,R,ugm-3
12-01-2010,16:00,33,R,ugm-3,57,R,ugm-3,107,R,ugm-3
12-01-2010,17:00,40,R,ugm-3,65,R,ugm-3,126,R,ugm-3
12-01-2010,18:00,43,R,ugm-3,61,R,ugm-3,126,R,ugm-3
12-01-2010,19:00,25,R,ugm-3,44,R,ugm-3,82,R,ugm-3
12-01-2010,20:00,15,R,ugm-3,32,R,ugm-3,55,R,ugm-3
12-01-2010,21:00,16,R,ugm-3,31,R,ugm-3,55,R,ugm-3
12-01-2010,22:00,14,R,ugm-3,31,R,ugm-3,52,R,ugm-3
12-01-2010,23:00,10,R,ugm-3,25,R,ugm-3,40,R,ugm-3
12-01-2010,24:00,8,R,ugm-3,25,R,ugm-3,36,R,ugm-3
13-01-2010,01:00,5,R,ugm-3,27,R,ugm-3,34,R,ugm-3
13-01-2010,02:00,,,,,,,,,
13-01-2010,03:00,1,R,ugm-3,19,R,ugm-3,21,R,ugm-3
13-01-2010,04:00,3,R,ugm-3,19,R,ugm-3,23,R,ugm-3
13-01-2010,05:00,3,R,ugm-3,27,R,ugm-3,31,R,ugm-3
13-01-2010,06:00,8,R,ugm-3,27,R,ugm-3,38,R,ugm-3
13-01-2010,07:00,13,R,ugm-3,31,R,ugm-3,50,R,ugm-3
13-01-2010,08:00,43,R,ugm-3,48,R,ugm-3,113,R,ugm-3
13-01-2010,09:00,56,R,ugm-3,59,R,ugm-3,145,R,ugm-3
13-01-2010,10:00,60,R,ugm-3,63,R,ugm-3,155,R,ugm-3
13-01-2010,11:00,68,R,ugm-3,61,R,ugm-3,164,R,ugm-3
13-01-2010,12:00,65,R,ugm-3,59,R,ugm-3,159,R,ugm-3
13-01-2010,13:00,55,R,ugm-3,59,R,ugm-3,143,R,ugm-3
13-01-2010,14:00,65,R,ugm-3,57,R,ugm-3,157,R,ugm-3
13-01-2010,15:00,59,R,ugm-3,57,R,ugm-3,147,R,ugm-3
13-01-2010,16:00,68,R,ugm-3,61,R,ugm-3,164,R,ugm-3
13-01-2010,17:00,95,R,ugm-3,71,R,ugm-3,216,R,ugm-3
13-01-2010,18:00,74,R,ugm-3,65,R,ugm-3,178,R,ugm-3
13-01-2010,19:00,56,R,ugm-3,61,R,ugm-3,147,R,ugm-3
13-01-2010,20:00,49,R,ugm-3,65,R,ugm-3,139,R,ugm-3
13-01-2010,21:00,45,R,ugm-3,57,R,ugm-3,126,R,ugm-3
13-01-2010,22:00,33,R,ugm-3,55,R,ugm-3,105,R,ugm-3
13-01-2010,23:00,20,R,ugm-3,53,R,ugm-3,84,R,ugm-3
13-01-2010,24:00,23,R,ugm-3,50,R,ugm-3,84,R,ugm-3
14-01-2010,01:00,18,R,ugm-3,38,R,ugm-3,65,R,ugm-3
14-01-2010,02:00,8,R,ugm-3,38,R,ugm-3,50,R,ugm-3
14-01-2010,03:00,8,R,ugm-3,38,R,ugm-3,50,R,ugm-3
14-01-2010,04:00,10,R,ugm-3,40,R,ugm-3,55,R,ugm-3
14-01-2010,05:00,15,R,ugm-3,42,R,ugm-3,65,R,ugm-3
14-01-2010,06:00,23,R,ugm-3,48,R,ugm-3,82,R,ugm-3
14-01-2010,07:00,30,R,ugm-3,50,R,ugm-3,96,R,ugm-3
14-01-2010,08:00,79,R,ugm-3,59,R,ugm-3,180,R,ugm-3
14-01-2010,09:00,105,R,ugm-3,69,R,ugm-3,229,R,ugm-3
14-01-2010,10:00,108,R,ugm-3,65,R,ugm-3,229,R,ugm-3
14-01-2010,11:00,100,R,ugm-3,67,R,ugm-3,220,R,ugm-3
14-01-2010,12:00,85,R,ugm-3,59,R,ugm-3,189,R,ugm-3
14-01-2010,13:00,103,R,ugm-3,61,R,ugm-3,218,R,ugm-3
14-01-2010,14:00,135,R,ugm-3,71,R,ugm-3,277,R,ugm-3
14-01-2010,15:00,133,R,ugm-3,73,R,ugm-3,275,R,ugm-3
14-01-2010,16:00,138,R,ugm-3,80,R,ugm-3,290,R,ugm-3
14-01-2010,17:00,144,R,ugm-3,78,R,ugm-3,298,R,ugm-3
14-01-2010,18:00,214,R,ugm-3,99,R,ugm-3,426,R,ugm-3
14-01-2010,19:00,176,R,ugm-3,90,R,ugm-3,359,R,ugm-3
14-01-2010,20:00,129,R,ugm-3,84,R,ugm-3,281,R,ugm-3
14-01-2010,21:00,83,R,ugm-3,73,R,ugm-3,199,R,ugm-3
14-01-2010,22:00,35,R,ugm-3,61,R,ugm-3,115,R,ugm-3
14-01-2010,23:00,24,R,ugm-3,61,R,ugm-3,97,R,ugm-3
14-01-2010,24:00,20,R,ugm-3,55,R,ugm-3,86,R,ugm-3
15-01-2010,01:00,18,R,ugm-3,53,R,ugm-3,80,R,ugm-3
15-01-2010,02:00,4,R,ugm-3,44,R,ugm-3,50,R,ugm-3
15-01-2010,03:00,5,R,ugm-3,42,R,ugm-3,50,R,ugm-3
15-01-2010,04:00,6,R,ugm-3,34,R,ugm-3,44,R,ugm-3
15-01-2010,05:00,9,R,ugm-3,31,R,ugm-3,44,R,ugm-3
15-01-2010,06:00,11,R,ugm-3,44,R,ugm-3,61,R,ugm-3
15-01-2010,07:00,11,R,ugm-3,42,R,ugm-3,59,R,ugm-3
15-01-2010,08:00,21,R,ugm-3,46,R,ugm-3,78,R,ugm-3
15-01-2010,09:00,18,R,ugm-3,52,R,ugm-3,78,R,ugm-3
15-01-2010,10:00,13,R,ugm-3,40,R,ugm-3,59,R,ugm-3
15-01-2010,11:00,11,R,ugm-3,36,R,ugm-3,53,R,ugm-3
15-01-2010,12:00,26,R,ugm-3,57,R,ugm-3,97,R,ugm-3
15-01-2010,13:00,35,R,ugm-3,59,R,ugm-3,113,R,ugm-3
15-01-2010,14:00,36,R,ugm-3,63,R,ugm-3,118,R,ugm-3
15-01-2010,15:00,41,R,ugm-3,69,R,ugm-3,132,R,ugm-3
15-01-2010,16:00,59,R,ugm-3,78,R,ugm-3,168,R,ugm-3
15-01-2010,17:00,46,R,ugm-3,74,R,ugm-3,145,R,ugm-3
15-01-2010,18:00,10,R,ugm-3,42,R,ugm-3,57,R,ugm-3
15-01-2010,19:00,11,R,ugm-3,34,R,ugm-3,52,R,ugm-3
15-01-2010,20:00,6,R,ugm-3,27,R,ugm-3,36,R,ugm-3
15-01-2010,21:00,5,R,ugm-3,25,R,ugm-3,32,R,ugm-3
15-01-2010,22:00,6,R,ugm-3,25,R,ugm-3,34,R,ugm-3
15-01-2010,23:00,5,R,ugm-3,17,R,ugm-3,25,R,ugm-3
15-01-2010,24:00,6,R,ugm-3,19,R,ugm-3,29,R,ugm-3
16-01-2010,01:00,10,R,ugm-3,19,R,ugm-3,34,R,ugm-3
16-01-2010,02:00,5,R,ugm-3,13,R,ugm-3,21,R,ugm-3
16-01-2010,03:00,5,R,ugm-3,10,R,ugm-3,17,R,ugm-3
16-01-2010,04:00,4,R,ugm-3,8,R,ugm-3,13,R,ugm-3
16-01-2010,05:00,3,R,ugm-3,6,R,ugm-3,10,R,ugm-3
16-01-2010,06:00,1,R,ugm-3,4,R,ugm-3,6,R,ugm-3
16-01-2010,07:00,3,R,ugm-3,4,R,ugm-3,8,R,ugm-3
16-01-2010,08:00,3,R,ugm-3,6,R,ugm-3,10,R,ugm-3
16-01-2010,09:00,4,R,ugm-3,10,R,ugm-3,15,R,ugm-3
16-01-2010,10:00,5,R,ugm-3,11,R,ugm-3,19,R,ugm-3
16-01-2010,11:00,5,R,ugm-3,15,R,ugm-3,23,R,ugm-3
16-01-2010,12:00,9,R,ugm-3,19,R,ugm-3,32,R,ugm-3
16-01-2010,13:00,9,R,ugm-3,21,R,ugm-3,34,R,ugm-3
16-01-2010,14:00,10,R,ugm-3,34,R,ugm-3,50,R,ugm-3
16-01-2010,15:00,13,R,ugm-3,40,R,ugm-3,59,R,ugm-3
16-01-2010,16:00,19,R,ugm-3,48,R,ugm-3,76,R,ugm-3
16-01-2010,17:00,14,R,ugm-3,55,R,ugm-3,76,R,ugm-3
16-01-2010,18:00,14,R,ugm-3,53,R,ugm-3,74,R,ugm-3
16-01-2010,19:00,15,R,ugm-3,48,R,ugm-3,71,R,ugm-3
16-01-2010,20:00,15,R,ugm-3,53,R,ugm-3,76,R,ugm-3
16-01-2010,21:00,50,R,ugm-3,67,R,ugm-3,143,R,ugm-3
16-01-2010,22:00,15,R,ugm-3,53,R,ugm-3,76,R,ugm-3
16-01-2010,23:00,9,R,ugm-3,38,R,ugm-3,52,R,ugm-3
16-01-2010,24:00,10,R,ugm-3,32,R,ugm-3,48,R,ugm-3
17-01-2010,01:00,11,R,ugm-3,34,R,ugm-3,52,R,ugm-3
17-01-2010,02:00,4,R,ugm-3,23,R,ugm-3,29,R,ugm-3
17-01-2010,03:00,3,R,ugm-3,21,R,ugm-3,25,R,ugm-3
17-01-2010,04:00,5,R,ugm-3,17,R,ugm-3,25,R,ugm-3
17-01-2010,05:00,1,R,ugm-3,10,R,ugm-3,11,R,ugm-3
17-01-2010,06:00,1,R,ugm-3,11,R,ugm-3,13,R,ugm-3
17-01-2010,07:00,3,R,ugm-3,21,R,ugm-3,25,R,ugm-3
17-01-2010,08:00,3,R,ugm-3,25,R,ugm-3,29,R,ugm-3
17-01-2010,09:00,8,R,ugm-3,36,R,ugm-3,48,R,ugm-3
17-01-2010,10:00,8,R,ugm-3,40,R,ugm-3,52,R,ugm-3
17-01-2010,11:00,23,R,ugm-3,50,R,ugm-3,84,R,ugm-3
17-01-2010,12:00,13,R,ugm-3,32,R,ugm-3,52,R,ugm-3
17-01-2010,13:00,13,R,ugm-3,31,R,ugm-3,50,R,ugm-3
17-01-2010,14:00,10,R,ugm-3,23,R,ugm-3,38,R,ugm-3
17-01-2010,15:00,9,R,ugm-3,25,R,ugm-3,38,R,ugm-3
17-01-2010,16:00,11,R,ugm-3,31,R,ugm-3,48,R,ugm-3
17-01-2010,17:00,5,R,ugm-3,31,R,ugm-3,38,R,ugm-3
17-01-2010,18:00,5,R,ugm-3,32,R,ugm-3,40,R,ugm-3
17-01-2010,19:00,4,R,ugm-3,23,R,ugm-3,29,R,ugm-3
17-01-2010,20:00,4,R,ugm-3,15,R,ugm-3,21,R,ugm-3
17-01-2010,21:00,5,R,ugm-3,17,R,ugm-3,25,R,ugm-3
17-01-2010,22:00,3,R,ugm-3,15,R,ugm-3,19,R,ugm-3
17-01-2010,23:00,3,R,ugm-3,10,R,ugm-3,13,R,ugm-3
17-01-2010,24:00,4,R,ugm-3,11,R,ugm-3,17,R,ugm-3
18-01-2010,01:00,3,R,ugm-3,8,R,ugm-3,11,R,ugm-3
18-01-2010,02:00,1,R,ugm-3,8,R,ugm-3,10,R,ugm-3
18-01-2010,03:00,1,R,ugm-3,8,R,ugm-3,10,R,ugm-3
18-01-2010,04:00,3,R,ugm-3,15,R,ugm-3,19,R,ugm-3
18-01-2010,05:00,3,R,ugm-3,21,R,ugm-3,25,R,ugm-3
18-01-2010,06:00,9,R,ugm-3,31,R,ugm-3,44,R,ugm-3
18-01-2010,07:00,16,R,ugm-3,59,R,ugm-3,84,R,ugm-3
18-01-2010,08:00,55,R,ugm-3,80,R,ugm-3,164,R,ugm-3
18-01-2010,09:00,70,R,ugm-3,88,R,ugm-3,195,R,ugm-3
18-01-2010,10:00,119,R,ugm-3,99,R,ugm-3,281,R,ugm-3
18-01-2010,11:00,,,,,,,,,
18-01-2010,12:00,,,,,,,,,
18-01-2010,13:00,,,,,,,,,
18-01-2010,14:00,34,R,ugm-3,52,R,ugm-3,103,R,ugm-3
18-01-2010,15:00,66,R,ugm-3,80,R,ugm-3,181,R,ugm-3
18-01-2010,16:00,53,R,ugm-3,78,R,ugm-3,159,R,ugm-3
18-01-2010,17:00,70,R,ugm-3,82,R,ugm-3,189,R,ugm-3
18-01-2010,18:00,103,R,ugm-3,88,R,ugm-3,244,R,ugm-3
18-01-2010,19:00,106,R,ugm-3,86,R,ugm-3,248,R,ugm-3
18-01-2010,20:00,158,R,ugm-3,96,R,ugm-3,336,R,ugm-3
18-01-2010,21:00,85,R,ugm-3,76,R,ugm-3,206,R,ugm-3
18-01-2010,22:00,75,R,ugm-3,73,R,ugm-3,187,R,ugm-3
18-01-2010,23:00,94,R,ugm-3,69,R,ugm-3,212,R,ugm-3
18-01-2010,24:00,73,R,ugm-3,61,R,ugm-3,172,R,ugm-3
19-01-2010,01:00,43,R,ugm-3,52,R,ugm-3,117,R,ugm-3
19-01-2010,02:00,21,R,ugm-3,44,R,ugm-3,76,R,ugm-3
19-01-2010,03:00,14,R,ugm-3,40,R,ugm-3,61,R,ugm-3
19-01-2010,04:00,20,R,ugm-3,42,R,ugm-3,73,R,ugm-3
19-01-2010,05:00,16,R,ugm-3,42,R,ugm-3,67,R,ugm-3
19-01-2010,06:00,24,R,ugm-3,50,R,ugm-3,86,R,ugm-3
19-01-2010,07:00,54,R,ugm-3,63,R,ugm-3,145,R,ugm-3
19-01-2010,08:00,128,R,ugm-3,84,R,ugm-3,279,R,ugm-3
19-01-2010,09:00,150,R,ugm-3,86,R,ugm-3,315,R,ugm-3
19-01-2010,10:00,183,R,ugm-3,94,R,ugm-3,372,R,ugm-3
19-01-2010,11:00,176,R,ugm-3,90,R,ugm-3,359,R,ugm-3
19-01-2010,12:00,149,R,ugm-3,86,R,ugm-3,313,R,ugm-3
19-01-2010,13:00,129,R,ugm-3,84,R,ugm-3,281,R,ugm-3
19-01-2010,14:00,80,R,ugm-3,73,R,ugm-3,195,R,ugm-3
19-01-2010,15:00,73,R,ugm-3,78,R,ugm-3,189,R,ugm-3
19-01-2010,16:00,59,R,ugm-3,71,R,ugm-3,160,R,ugm-3
19-01-2010,17:00,50,R,ugm-3,67,R,ugm-3,143,R,ugm-3
19-01-2010,18:00,58,R,ugm-3,67,R,ugm-3,155,R,ugm-3
19-01-2010,19:00,45,R,ugm-3,59,R,ugm-3,128,R,ugm-3
19-01-2010,20:00,30,R,ugm-3,48,R,ugm-3,94,R,ugm-3
19-01-2010,21:00,23,R,ugm-3,44,R,ugm-3,78,R,ugm-3
19-01-2010,22:00,11,R,ugm-3,29,R,ugm-3,46,R,ugm-3
19-01-2010,23:00,10,R,ugm-3,23,R,ugm-3,38,R,ugm-3
19-01-2010,24:00,10,R,ugm-3,19,R,ugm-3,34,R,ugm-3
20-01-2010,01:00,8,R,ugm-3,17,R,ugm-3,29,R,ugm-3
20-01-2010,02:00,6,R,ugm-3,15,R,ugm-3,25,R,ugm-3
20-01-2010,03:00,8,R,ugm-3,15,R,ugm-3,27,R,ugm-3
20-01-2010,04:00,6,R,ugm-3,15,R,ugm-3,25,R,ugm-3
20-01-2010,05:00,5,R,ugm-3,13,R,ugm-3,21,R,ugm-3
20-01-2010,06:00,13,R,ugm-3,21,R,ugm-3,40,R,ugm-3
20-01-2010,07:00,21,R,ugm-3,34,R,ugm-3,67,R,ugm-3
20-01-2010,08:00,39,R,ugm-3,42,R,ugm-3,101,R,ugm-3
20-01-2010,09:00,66,R,ugm-3,59,R,ugm-3,160,R,ugm-3
20-01-2010,10:00,76,R,ugm-3,65,R,ugm-3,181,R,ugm-3
20-01-2010,11:00,79,R,ugm-3,67,R,ugm-3,187,R,ugm-3
20-01-2010,12:00,65,R,ugm-3,63,R,ugm-3,162,R,ugm-3
20-01-2010,13:00,54,R,ugm-3,57,R,ugm-3,139,R,ugm-3
20-01-2010,14:00,45,R,ugm-3,57,R,ugm-3,126,R,ugm-3
20-01-2010,15:00,45,R,ugm-3,55,R,ugm-3,124,R,ugm-3